Regional Weather Roundup
Issued by NWS

Home | Current Version | Previous Version | Graphics & Text | Print | Product List | Glossary On
Versions: 1 2 3 4 5 6 7 8 9 10 11 12 13 14 15 16 17 18 19 20 21 22 23 24 25 26 27 28 29 30 31 32 33 34 35 36 37 38 39 40 41 42 43 44 45 46 47 48 49 50
000
ASUS43 KMPX 211301
RWRMN
WEATHER ROUNDUP FOR MINNESOTA
NATIONAL WEATHER SERVICE TWIN CITIES/CHANHASSEN MN
800 AM CDT THU AUG 21 2014


NOTE: "FAIR" INDICATES FEW OR NO CLOUDS BELOW 12,000 FEET WITH NO
SIGNIFICANT WEATHER AND/OR OBSTRUCTIONS TO VISIBILITY. N/A MEANS
CURRENT SKY AND/OR WEATHER CONDITIONS ARE NOT AVAILABLE.

MNZ060>063-068>070-211400-
   Twin Cities Metro

CITY           SKY/WX    TMP DP  RH WIND       PRES   REMARKS
TWIN CITIES    LGT RAIN  70  69  97 VRB7G18   29.80F
ST PAUL        LGT RAIN  69  67  93 E25       29.72F
CRYSTAL        CLOUDY    70  67  90 SE7       29.78F
BLAINE         RAIN      70  70 100 E17       29.78F
LAKEVILLE      LGT RAIN  70  66  88 E6        29.81F
EDEN PRAIRIE   CLOUDY    71  68  90 CALM      29.80R
SOUTH ST PAUL  LGT RAIN  70  67  93 E15G22    29.75F
LAKE ELMO      CLOUDY    68  68 100 E8        29.86F
$$
MNZ001>005-007-008-013>017-022>024-027-028-211400-
   Northwest Minnesota

CITY           SKY/WX    TMP DP  RH WIND       PRES   REMARKS
BEMIDJI        CLOUDY    64  61  90 E9G17     29.82F
HALLOCK        PTSUNNY   66  64  94 E5        29.79S
ROSEAU         CLOUDY    64  57  77 E5        29.83F
WARROAD        CLOUDY    63  57  82 SE9       29.84F
THIEF RVR FALL CLOUDY    64  63  94 E9        29.80S
CROOKSTON      PTSUNNY   66  64  94 SE7       29.78S
FOSSTON        CLOUDY    63  61  94 CALM      29.80R
DETROIT LAKES  CLOUDY    68  64  88 S3        29.79R
MOORHEAD       SUNNY     72  72 100 CALM      29.76S
PARK RAPIDS    CLOUDY    65  64  97 E8        29.79R
MAHNOMEN       PTSUNNY   65  64  94 CALM      29.78R
$$
MNZ006-009>011-018-025>026-211400-
   North Central Minnesota

CITY           SKY/WX    TMP DP  RH WIND       PRES   REMARKS
BAUDETTE       CLOUDY    60  58  92 SE8       29.87F
FLAG ISLAND    CLOUDY    64  61  88 SE9       29.85F
INTL FALLS     CLOUDY    60  59  96 SE9       29.91S
WASKISH        CLOUDY    61  59  94 CALM      29.86S
BIG FORK       CLOUDY    63  59  88 E8        29.87F
LONGVILLE      LGT RAIN  63  61  94 E3        29.81R
GRAND RAPIDS   CLOUDY    61  57  88 E8        29.85F
CRANE LAKE     CLOUDY    59  57  94 CALM      29.95S
ORR            CLOUDY    61  55  82 SE3       29.89F
COOK           CLOUDY    61  57  88 E5        29.92F
WALKER         CLOUDY    63  62  96 E8        29.81R
$$
MNZ012-019>021-037-211400-
   Northeast Minnesota

CITY           SKY/WX    TMP DP  RH WIND       PRES   REMARKS
DULUTH         CLOUDY    61  59  93 E12       29.92R FOG
ELY            CLOUDY    61  57  88 SE7       29.95S
HIBBING        CLOUDY    62  58  86 E9        29.90F
EVELETH        CLOUDY    59  59 100 E6        29.92F
DULUTH HARBOR  CLOUDY    61  61 100 NE16      29.93R
TWO HARBORS    CLOUDY    61  55  82 E7        29.92S
SILVER BAY     CLOUDY    59  59 100 NE5       29.94S FOG
GRAND MARAIS     N/A     60  59  96 E9        29.95F
G MARAIS ARPRT CLOUDY    57  55  94 CALM      29.99F FOG
$$
MNZ029>031-032-039>041-046>048-054>057-064-211400-
   West Central Minnesota

CITY           SKY/WX    TMP DP  RH WIND       PRES   REMARKS
FERGUS FALLS   SUNNY     70  66  88 SE7       29.74S
WHEATON        MOSUNNY   66  64  94 S7        29.76R
MORRIS         SUNNY     72  70  94 SE10      29.73R
ALEXANDRIA     SUNNY     69  65  86 SE12      29.77R
ELBOW LAKE     FAIR      69  67  94 SE10      29.74R
WADENA         CLOUDY    64  64 100 SE6       29.77R
APPLETON       MOSUNNY   72  68  88 SE8G16    29.73R
BENSON         SUNNY     70  68  94 SE8       29.74R
ORTONVILLE     SUNNY     70  66  88 S5        29.74S
MADISON        SUNNY     73  70  88 CALM      29.75R
WILLMAR        FAIR      70  68  94 SE17G25   29.77R
$$
MNZ033>034-036-042>043-049>051-058-059-211400-
   Central Minnesota

CITY           SKY/WX    TMP DP  RH WIND       PRES   REMARKS
ST CLOUD       CLOUDY    69  66  90 SE12      29.77F
SAUK CENTRE    FAIR      66  65  94 E12       29.77S
PAYNESVILLE    RAIN      65  64  99 NE10      29.78S
AITKIN         MIX PCPN  64  59  82 SE9       29.82F
PINE RIVER     DRIZZLE   64  64 100 S8G16     29.82R
BRAINERD       LGT RAIN  64  63  96 SE15G21   29.78F
STAPLES        CLOUDY    63  63 100 SE8       29.77R
LONG PRAIRIE   CLOUDY    64  63  94 E13       29.78S
LITTLE FALLS   CLOUDY    63  63 100 E8        29.79F
LITCHFIELD     CLOUDY    70  70 100 E10       29.79S
BUFFALO        CLOUDY    68  66  92 E6        29.81S
MAPLE LAKE     CLOUDY    69  68  96 E7        29.80F
$$
MNZ037-044-045-052-053-211400-
   East Central Minnesota

CITY           SKY/WX    TMP DP  RH WIND       PRES   REMARKS
PRINCETON      CLOUDY    66  66 100 E7        29.80F
MORA           LGT RAIN  59  59 100 NE5       29.84F
CAMBRIDGE      LGT RAIN  68  61  77 NE3       29.80F
RUSH CITY      CLOUDY    65  64  96 E5        29.84F
MOOSE LAKE     LGT RAIN  61  59  94 E5        29.87F
HINCKLEY       RAIN      63  63 100 NE5       29.86F
CLOQUET        LGT RAIN  61  59  94 E5        29.91F
MCGREGOR       CLOUDY    63  61  94 SE6       29.87F
$$
MNZ071>073-080-081-089-090-097-098-211400-
   Southwest Minnesota

CITY           SKY/WX    TMP DP  RH WIND       PRES   REMARKS
MONTEVIDEO     SUNNY     72  70  94 SE10      29.74S
GRANITE FALLS  SUNNY    N/A N/A N/A E9        29.75S
CANBY          PTSUNNY   69  68  96 CALM      29.77R
MARSHALL       MOSUNNY   72  66  83 SE5       29.74R
REDWOOD FALLS  PTSUNNY   72  70  93 E12       29.74S
OLIVIA         CLOUDY    72  68  88 E12       29.76R
PIPESTONE      CLOUDY    72  70  94 SE5       29.77S
WINDOM         CLOUDY    72  70  94 SE8       29.78R
WORTHINGTON    PTSUNNY   73  14  10 S3        29.79R
JACKSON        MOSUNNY   70  68  94 SE8       29.79S
TRACY          PTSUNNY   71  69  95 CALM      29.75S
SLAYTON        CLOUDY    71  71  99 CALM      29.79R
$$
MNZ065>067-074>077-082>085-091>093-211400-
   South Central Minnesota

CITY           SKY/WX    TMP DP  RH WIND       PRES   REMARKS
MANKATO        CLOUDY    70  64  83 SE13      29.78F
NEW ULM        PTSUNNY   70  70 100 SE6       29.75F
ST JAMES       CLOUDY    72  70  94 SE8       29.78S THUNDER
FAIRMONT       CLOUDY    70  64  83 MISG      29.81R
GLENCOE        CLOUDY    71  67  88 E7        29.77F
FARIBAULT      LGT RAIN  73  66  78 E5        29.85R
OWATONNA       RAIN      70  66  88 S3        29.85R
WASECA         LGT RAIN  68  64  88 SE6       29.85R
ALBERT LEA     TSTM      70  70 100 S10       29.87F
$$
MNZ078>079-086>088-094>096-211400-
   Southeast Minnesota

CITY           SKY/WX    TMP DP  RH WIND       PRES   REMARKS
ROCHESTER      RAIN      69  67  93 S8        29.89F FOG
RED WING       CLOUDY    72  70  94 SE7       29.85S
STANTON        LGT RAIN  71  67  87 S5        29.83R
DODGE CENTER   LGT RAIN  66  66 100 SE9       29.86F
WINONA         TSTM      73  68  83 N14G20    29.87S
AUSTIN         TSTM      72  70  94 SE5       29.87R
PRESTON        TSTM      67  67 100 NW24G32   29.94R
$$
ABBREVIATIONS USED IN REMARKS
   TC - TEMPERATURES IN CELSIUS
  WCI - WIND CHILL INDEX
   HX - HEAT INDEX
  VSB - VISIBILITY
$$



USA.gov is the U.S. government's official web portal to all federal, state and local government web resources and services.